軌道要素
Epoch 2015 Sept. 15.0 TT = JDT 2457280.5
T 2015 Aug. 26.66171 TT MPCW
q 1.9717544 (2000.0) P Q
n 0.01513256 Peri. 108.95783 +0.18047399 +0.53666154
a 16.1880485 Node 235.51553 -0.12832646 +0.84371637
e 0.8781969 Incl. 90.25452 +0.97517253 +0.01170837
P 65.13
From 279 observations 2015 Apr. 8-2016 Feb. 28, mean residual 0".5.
|